Regional Weather Roundup
Issued by NWS

Home | Current Version | Previous Version | Text Only | Print | Product List | Glossary Off
Versions: 1 2 3 4 5 6 7 8 9 10 11 12 13 14 15 16 17 18 19 20 21 22 23 24 25 26 27 28 29 30 31 32 33 34 35 36 37 38 39 40 41 42 43 44 45 46 47 48 49 50

000
ASUS43 KLSX 192057
RWRMO

WEATHER SUMMARY FOR MISSOURI
NATIONAL WEATHER SERVICE SPRINGFIELD MO
300 PM CST SUN NOV 19 2017

NOTE: "FAIR" INDICATES FEW OR NO CLOUDS BELOW 12,000 FEET WITH NO
       SIGNIFICANT WEATHER AND/OR OBSTRUCTIONS TO VISIBILITY.
       CURRENT SKY AND/OR WEATHER CONDITIONS ARE NOT AVAILABLE FOR
       CHILLICOTHE AND FARMINGTON.

MOZ001>031-035>038-043-044-053-054-192200-
...NORTHERN AND WESTERN MISSOURI...

CITY           SKY/WX    TMP DP  RH WIND       PRES   REMARKS
KANSAS CTY INT SUNNY     52  29  41 SW13      30.13F
ST JOSEPH      SUNNY     53  27  36 SW13      30.11F
CHILLICOTHE      N/A     49  25  39 SW9       30.15F

$$
MOZ066>068-077>081-088>096-101>105-192200-
...SOUTHWEST MISSOURI...

CITY           SKY/WX    TMP DP  RH WIND       PRES   REMARKS
SPRINGFIELD    SUNNY     50  26  39 VRB5      30.21F
JOPLIN         SUNNY     52  29  41 W9        30.23F
BRANSON        SUNNY     50  23  34 NW6       30.23F

$$
MOZ032>034-039>042-045>050-055>058-069>072-192200-
...CENTRAL MISSOURI...

CITY           SKY/WX    TMP DP  RH WIND       PRES   REMARKS
COLUMBIA       NOT AVBL
JEFFERSON CITY SUNNY     46  21  37 NW3       30.21F
ROLLA          SUNNY     44  19  36 W3        30.19F
SEDALIA        SUNNY     48  27  44 SW8       30.20F
WARRENSBURG    SUNNY     48  27  43 SW12      30.18F

$$
MOZ051-052-059>065-192200-
...EAST CENTRAL MISSOURI...

CITY           SKY/WX    TMP DP  RH WIND       PRES   REMARKS
ST LOUIS INTL  MOSUNNY   43  20  39 W8        30.20F

$$
MOZ072>076-082>087-097>100-106>115-192200-
...SOUTH CENTRAL AND SOUTHEAST MISSOURI...

CITY           SKY/WX    TMP DP  RH WIND       PRES   REMARKS
CAPE GIRARDEAU SUNNY     45  21  38 NW8       30.20F
POPLAR BLUFF   SUNNY     50  16  25 NW6       30.21S
WEST PLAINS    SUNNY     50  17  27 N13G20    30.21F

$$



USA.gov is the U.S. government's official web portal to all federal, state and local government web resources and services.